Weather History for Marshall, MN

Change the Weather History Date:

Wednesday, December 25, 2013

  Actual Average Record
Temperature  
Mean Temperature 24 °F -  
Max Temperature 30 °F 23 °F 48 °F (1999)
Min Temperature 19 °F 3 °F -13 °F (1968)
Degree Days  
Heating Degree Days 40    
Moisture  
Dew Point 18 °F    
Average Humidity 78    
Maximum Humidity 93    
Minimum Humidity 64    
Precipitation  
Precipitation 0.00 in - - ()
Sea Level Pressure  
Sea Level Pressure 30.08 in    
Wind  
Wind Speed 13 mph (West)    
Max Wind Speed 23 mph    
Max Gust Speed 30 mph    
Visibility 9 miles    
Events      
Averages and records for this station are not official NWS values.
T = Trace of Precipitation, MM = Missing Value Source: NWS Daily Summary

Daily Weather History Graph

Daily Weather History Graph

Search for Another Location

Airport:

Trip Planner

Search our weather history database for the weather conditions in past years. The results will help you decide how hot, cold, wet, or windy it might be!

Date:

Astronomy

Dec. 25, 2013 Rise Set
Actual Time 7:58 AM CST 4:48 PM CST
Civil Twilight 7:24 AM CST 5:22 PM CST
Nautical Twilight 6:47 AM CST 5:59 PM CST
Astronomical Twilight 6:12 AM CST 6:34 PM CST
Moon 12:14 AM CST (12/25) 12:05 PM CST (12/25)
Length of Visible Light 9h 57m
Length of Day
8h 50m
Waning Gibbous, 48% of the Moon is Illuminated
Dec 25
Waning Gibbous
Jan 1
New
Jan 7
First Quarter
Jan 15
Full
Jan 23
Last Quarter

Hourly Weather History & Observations

Time (CST) Temp. Windchill Dew Point Humidity Pressure Visibility Wind Dir Wind Speed Gust Speed Precip Events Conditions
12:15 AM 19.4 °F 10.4 °F 17.6 °F 93% 30.06 in 10.0 mi West 6.9 mph - N/A   Overcast
12:35 AM 19.4 °F 10.4 °F 15.8 °F 86% 30.06 in 10.0 mi West 6.9 mph - N/A   Overcast
12:55 AM 21.2 °F 10.1 °F 15.8 °F 80% 30.05 in 10.0 mi WSW 10.4 mph - N/A   Overcast
1:15 AM 21.2 °F 10.9 °F 17.6 °F 86% 30.05 in 10.0 mi WSW 9.2 mph - N/A   Overcast
1:35 AM 21.2 °F 10.1 °F 15.8 °F 80% 30.05 in 10.0 mi West 10.4 mph - N/A   Overcast
1:55 AM 21.2 °F 12.6 °F 17.6 °F 86% 30.04 in 10.0 mi WSW 6.9 mph - N/A   Overcast
2:15 AM 23.0 °F 11.7 °F 17.6 °F 80% 30.03 in 10.0 mi SW 11.5 mph - N/A   Overcast
2:35 AM 21.2 °F 9.5 °F 15.8 °F 80% 30.02 in 10.0 mi WSW 11.5 mph - N/A   Mostly Cloudy
2:55 AM 23.0 °F 10.1 °F 19.4 °F 86% 30.03 in 10.0 mi SW 15.0 mph - N/A   Scattered Clouds
3:15 AM 24.8 °F 11.1 °F 17.6 °F 74% 30.02 in 5.0 mi WSW 18.4 mph 26.5 mph N/A   Overcast
3:35 AM 24.8 °F 10.7 °F 19.4 °F 80% 30.02 in 4.0 mi WSW 19.6 mph - N/A   Overcast
3:55 AM 24.8 °F 11.9 °F 19.4 °F 80% 30.01 in 2.5 mi WSW 16.1 mph 21.9 mph N/A   Overcast
4:15 AM 24.8 °F 14.0 °F 19.4 °F 80% 30.02 in 10.0 mi West 11.5 mph 19.6 mph N/A   Overcast
4:35 AM 24.8 °F 12.4 °F 19.4 °F 80% 30.01 in 8.0 mi WSW 15.0 mph 19.6 mph N/A   Overcast
4:55 AM 23.0 °F 8.3 °F 17.6 °F 80% 30.00 in 2.0 mi WSW 19.6 mph - N/A   Overcast
5:15 AM 23.0 °F 9.2 °F 17.6 °F 80% 30.00 in 2.5 mi WSW 17.3 mph - N/A   Overcast
5:35 AM 23.0 °F 8.7 °F 17.6 °F 80% 30.00 in 3.0 mi WSW 18.4 mph - N/A   Overcast
5:55 AM 24.8 °F 11.5 °F 17.6 °F 74% 30.00 in 4.0 mi WSW 17.3 mph - N/A   Mostly Cloudy
6:15 AM 24.8 °F 11.5 °F 19.4 °F 80% 30.01 in 10.0 mi West 17.3 mph - N/A   Mostly Cloudy
6:35 AM 24.8 °F 10.7 °F 19.4 °F 80% 30.01 in 3.0 mi West 19.6 mph - N/A   Mostly Cloudy
6:55 AM 24.8 °F 11.1 °F 21.2 °F 86% 30.01 in 2.5 mi West 18.4 mph - N/A   Mostly Cloudy
7:15 AM 26.6 °F 13.8 °F 21.2 °F 80% 30.02 in 3.0 mi West 17.3 mph - N/A   Overcast
7:35 AM 26.6 °F 13.8 °F 23.0 °F 86% 30.03 in 2.5 mi West 17.3 mph - N/A   Overcast
7:55 AM 26.6 °F 14.7 °F 23.0 °F 86% 30.03 in 7.0 mi West 15.0 mph - N/A   Overcast
8:15 AM 28.4 °F 16.6 °F 21.2 °F 74% 30.03 in 10.0 mi WNW 16.1 mph - N/A   Mostly Cloudy
8:35 AM 28.4 °F 17.0 °F 23.0 °F 80% 30.03 in 10.0 mi WNW 15.0 mph - N/A   Mostly Cloudy
8:55 AM 28.4 °F 17.0 °F 21.2 °F 74% 30.05 in 10.0 mi WNW 15.0 mph - N/A   Mostly Cloudy
9:15 AM 28.4 °F 17.0 °F 23.0 °F 80% 30.05 in 10.0 mi WNW 15.0 mph - N/A   Mostly Cloudy
9:35 AM 30.2 °F 18.5 °F 24.8 °F 80% 30.06 in 10.0 mi NW 17.3 mph - N/A   Overcast
9:55 AM 30.2 °F 18.5 °F 26.6 °F 86% 30.07 in 10.0 mi NW 17.3 mph - N/A   Overcast
10:15 AM 30.2 °F 18.1 °F 26.6 °F 86% 30.08 in 10.0 mi NW 18.4 mph - N/A   Overcast
10:35 AM 30.2 °F 17.8 °F 23.0 °F 75% 30.09 in 10.0 mi NNW 19.6 mph 28.8 mph N/A   Overcast
10:55 AM 28.4 °F 15.1 °F 23.0 °F 80% 30.11 in 10.0 mi North 20.7 mph - N/A   Overcast
11:15 AM 28.4 °F 16.2 °F 23.0 °F 80% 30.11 in 10.0 mi NNW 17.3 mph - N/A   Overcast
11:35 AM 28.4 °F 15.1 °F 19.4 °F 69% 30.11 in 10.0 mi NNW 20.7 mph 29.9 mph N/A   Overcast
11:55 AM 28.4 °F 14.4 °F 19.4 °F 69% 30.11 in 10.0 mi NNW 23.0 mph 28.8 mph N/A   Overcast
12:15 PM 26.6 °F 13.4 °F 19.4 °F 74% 30.12 in 10.0 mi NNW 18.4 mph 25.3 mph N/A   Overcast
12:35 PM 26.6 °F 13.4 °F 21.2 °F 80% 30.12 in 10.0 mi NNW 18.4 mph - N/A   Overcast
12:55 PM 24.8 °F 11.9 °F 19.4 °F 80% 30.12 in 10.0 mi North 16.1 mph - N/A   Overcast
1:15 PM 24.8 °F 11.5 °F 17.6 °F 74% 30.12 in 10.0 mi North 17.3 mph - N/A   Overcast
1:35 PM 24.8 °F 11.9 °F 17.6 °F 74% 30.12 in 10.0 mi NNW 16.1 mph - N/A   Overcast
1:55 PM 24.8 °F 13.4 °F 17.6 °F 74% 30.12 in 10.0 mi NNW 12.7 mph - N/A   Overcast
2:15 PM 24.8 °F 13.4 °F 17.6 °F 74% 30.13 in 10.0 mi NW 12.7 mph 17.3 mph N/A   Mostly Cloudy
2:35 PM 24.8 °F 12.4 °F 17.6 °F 74% 30.14 in 10.0 mi NW 15.0 mph - N/A   Scattered Clouds
2:55 PM 24.8 °F 13.4 °F 14.0 °F 64% 30.14 in 10.0 mi NW 12.7 mph - N/A   Mostly Cloudy
3:15 PM 23.0 °F 8.7 °F 14.0 °F 68% 30.14 in 10.0 mi NW 18.4 mph - N/A   Clear
3:35 PM 21.2 °F 7.8 °F 14.0 °F 74% 30.15 in 10.0 mi NW 15.0 mph - N/A   Clear
3:55 PM 21.2 °F 8.9 °F 14.0 °F 74% 30.15 in 10.0 mi NW 12.7 mph - N/A   Clear
4:15 PM 21.2 °F 8.9 °F 12.2 °F 68% 30.15 in 10.0 mi WNW 12.7 mph - N/A   Clear
4:35 PM 21.2 °F 9.5 °F 12.2 °F 68% 30.14 in 10.0 mi WNW 11.5 mph - N/A   Scattered Clouds
4:55 PM 21.2 °F 9.5 °F 15.8 °F 80% 30.15 in 10.0 mi WNW 11.5 mph - N/A   Overcast
5:15 PM 24.8 °F 12.9 °F 15.8 °F 69% 30.15 in 10.0 mi NW 13.8 mph 20.7 mph N/A   Overcast
5:35 PM 24.8 °F 14.6 °F 15.8 °F 69% 30.15 in 10.0 mi WNW 10.4 mph - N/A   Overcast
5:55 PM 23.0 °F 12.4 °F 17.6 °F 80% 30.14 in 10.0 mi West 10.4 mph - N/A   Overcast
6:15 PM 23.0 °F 12.4 °F 17.6 °F 80% 30.14 in 10.0 mi West 10.4 mph - N/A   Overcast
6:35 PM 24.8 °F 14.6 °F 17.6 °F 74% 30.14 in 10.0 mi WNW 10.4 mph - N/A   Overcast
6:55 PM 24.8 °F 12.9 °F 17.6 °F 74% 30.14 in 10.0 mi WNW 13.8 mph - N/A   Overcast
7:15 PM 24.8 °F 15.3 °F 19.4 °F 80% 30.14 in 10.0 mi West 9.2 mph - N/A   Overcast
7:35 PM 24.8 °F 13.4 °F 17.6 °F 74% 30.13 in 10.0 mi West 12.7 mph - N/A   Overcast
7:55 PM 24.8 °F 14.6 °F 17.6 °F 74% 30.12 in 10.0 mi West 10.4 mph - N/A   Overcast
8:15 PM 23.0 °F 11.7 °F 15.8 °F 74% 30.12 in 10.0 mi West 11.5 mph - N/A   Mostly Cloudy
8:35 PM 21.2 °F 9.5 °F 15.8 °F 80% 30.11 in 10.0 mi WSW 11.5 mph - N/A   Scattered Clouds
8:55 PM 23.0 °F 10.6 °F 15.8 °F 74% 30.11 in 10.0 mi WSW 13.8 mph - N/A   Overcast
9:15 PM 21.2 °F 10.1 °F 15.8 °F 80% 30.11 in 10.0 mi WSW 10.4 mph - N/A   Mostly Cloudy
9:35 PM 21.2 °F 12.6 °F 15.8 °F 80% 30.10 in 10.0 mi West 6.9 mph - N/A   Mostly Cloudy
9:55 PM 21.2 °F 14.9 °F 15.8 °F 80% 30.09 in 10.0 mi West 4.6 mph - N/A   Overcast
10:15 PM 21.2 °F 13.6 °F 15.8 °F 80% 30.08 in 10.0 mi SW 5.8 mph - N/A   Mostly Cloudy
10:35 PM 23.0 °F 13.1 °F 17.6 °F 80% 30.07 in 10.0 mi WSW 9.2 mph - N/A   Partly Cloudy
10:55 PM 24.8 °F 11.9 °F 19.4 °F 80% 30.06 in 10.0 mi WSW 16.1 mph - N/A   Scattered Clouds
11:15 PM 26.6 °F 14.3 °F 17.6 °F 69% 30.06 in 10.0 mi WSW 16.1 mph - N/A   Overcast
11:35 PM 26.6 °F 14.3 °F 19.4 °F 74% 30.06 in 10.0 mi WSW 16.1 mph - N/A   Overcast
11:55 PM 24.8 °F 11.9 °F 17.6 °F 74% 30.06 in 10.0 mi WSW 16.1 mph - N/A   Overcast